Flag for U.S.A. Weather past 2 weeks in Menominee, Michigan, U.S.A.

Now
61 °F

Sunny.


Feels Like: 61 °F
Forecast: 48 / 71 °F
Wind: 13 mph from Southwest

Location: Menominee Weather Reporting Station

Current Time: Jun 3, 2015 at 8:51:39 AM

Latest Report: Jun 3, 2015 at 8:15 AM


Visibility: 10 mi

Pressure: 30.06 "Hg

Humidity: 63%

Dew point: 48 °F

Location of MenomineeLocation

Historic Weather in Menominee — Graph

°F

Menominee temperature yesterday

Maximum temperature yesterday: 66 °F (at 12:55 PM)
Minimum temperature yesterday: 37 °F (at 3:35 AM)
Average temperature yesterday: 54 °F

Past Weeks' High & Low Weather Summary

 TemperatureHumidityPressure
High79 °F (May 29, 3:15 PM)94% (May 24, 10:55 PM)30.37 "Hg (May 24, 10:55 PM)
Low34 °F (May 20, 3:15 AM)25% (May 21, 1:15 PM)29.60 "Hg (May 27, 12:35 AM)
Average56 °F64%30.07 "Hg
* Reported May 19 7:15 AM — Jun 3 7:55 AM, Menominee, Weather by CustomWeather, © 2015

Note: Actual official high and low records may vary slightly from our data, if they occured in-between our weather recording intervals... More about our weather records

Advertising

Menominee weather history for previous 24 hours

 ConditionsComfort  
Time TempWeatherWind HumidityBarometerVisibility
7:55 AM
Wed, Jun 3
61 °FSunny.9 mph59%30.06 "Hg10 mi
7:35 AM59 °FSunny.18 mph63%30.05 "Hg10 mi
7:15 AM57 °FSunny.13 mph67%30.05 "Hg10 mi
6:55 AM55 °FSunny.14 mph72%30.06 "Hg10 mi
6:35 AM54 °FSunny.8 mph72%30.05 "Hg10 mi
6:15 AM52 °FSunny.6 mph77%30.05 "Hg10 mi
5:55 AM48 °FSunny.3 mph82%30.05 "Hg9 mi
5:35 AM48 °FSunny.5 mph82%30.05 "Hg10 mi
5:15 AM48 °FSunny.3 mph76%30.05 "Hg10 mi
4:55 AM48 °FClear.3 mph76%30.04 "Hg10 mi
4:35 AM48 °FClear.No wind76%30.05 "Hg10 mi
4:15 AM48 °FClear.5 mph76%30.05 "Hg10 mi
3:55 AM48 °FClear.3 mph76%30.05 "Hg10 mi
3:35 AM48 °FClear.3 mph71%30.05 "Hg10 mi
3:15 AM48 °FClear.5 mph76%30.05 "Hg10 mi
2:55 AM48 °FClear.5 mph76%30.05 "Hg10 mi
2:35 AM48 °FClear.6 mph76%30.05 "Hg10 mi
2:15 AM50 °FClear.6 mph71%30.06 "Hg10 mi
1:55 AM50 °FClear.6 mph71%30.05 "Hg10 mi
1:35 AM50 °FClear.7 mph67%30.05 "Hg10 mi
1:15 AM50 °FClear.8 mph67%30.06 "Hg10 mi
12:55 AM50 °FClear.7 mph67%30.06 "Hg10 mi
12:35 AM52 °FClear.7 mph62%30.07 "Hg10 mi
12:15 AM52 °FClear.8 mph62%30.06 "Hg10 mi
11:55 PM
Tue, Jun 2
54 °FClear.7 mph54%30.06 "Hg10 mi
11:35 PM54 °FClear.6 mph54%30.06 "Hg10 mi
11:15 PM54 °FClear.6 mph54%30.06 "Hg10 mi
10:35 PM55 °FClear.7 mph47%30.06 "Hg10 mi
10:15 PM55 °FClear.7 mph47%30.06 "Hg10 mi
9:55 PM55 °FClear.8 mph47%30.06 "Hg10 mi
9:35 PM57 °FClear.3 mph44%30.07 "Hg10 mi
9:15 PM57 °FClear.6 mph48%30.06 "Hg10 mi
8:55 PM59 °FClear.7 mph45%30.06 "Hg10 mi
8:35 PM61 °FClear.7 mph42%30.07 "Hg10 mi
8:15 PM61 °FSunny.9 mph42%30.07 "Hg10 mi
7:55 PM63 °FSunny.9 mph39%30.07 "Hg10 mi
7:35 PM63 °FSunny.9 mph42%30.07 "Hg10 mi
7:15 PM64 °FSunny.9 mph40%30.07 "Hg10 mi
6:55 PM64 °FSunny.12 mph40%30.08 "Hg10 mi
6:35 PM64 °FSunny.12 mph43%30.08 "Hg10 mi
6:15 PM66 °FSunny.10 mph37%30.07 "Hg10 mi
5:55 PM66 °FSunny.13 mph37%30.08 "Hg10 mi
5:35 PM66 °FSunny.16 mph40%30.08 "Hg10 mi
5:15 PM66 °FSunny.15 mph40%30.08 "Hg10 mi
4:35 PM66 °FSunny.14 mph43%30.09 "Hg10 mi
4:15 PM66 °FSunny.13 mph43%30.09 "Hg10 mi
3:55 PM66 °FSunny.13 mph43%30.10 "Hg10 mi
3:35 PM66 °FSunny.10 mph43%30.11 "Hg10 mi
3:15 PM66 °FSunny.13 mph43%30.11 "Hg7 mi
2:55 PM66 °FSunny.14 mph43%30.11 "Hg10 mi
2:35 PM66 °FSunny.14 mph46%30.12 "Hg10 mi
2:15 PM66 °FSunny.12 mph46%30.12 "Hg10 mi
1:55 PM66 °FSunny.15 mph43%30.12 "Hg10 mi
1:35 PM66 °FSunny.12 mph43%30.13 "Hg10 mi
1:15 PM66 °FSunny.12 mph43%30.14 "Hg10 mi
12:55 PM66 °FSunny.10 mph43%30.14 "Hg7 mi
12:35 PM64 °FSunny.12 mph43%30.15 "Hg10 mi
12:15 PM63 °FSunny.12 mph49%30.16 "Hg10 mi
11:55 AM61 °FSunny.10 mph52%30.17 "Hg10 mi
11:35 AM61 °FSunny.10 mph55%30.17 "Hg10 mi
11:15 AM61 °FSunny.9 mph55%30.18 "Hg10 mi
10:55 AM59 °FSunny.8 mph55%30.18 "Hg10 mi
10:35 AM59 °FSunny.9 mph63%30.18 "Hg10 mi
10:15 AM61 °FSunny.8 mph55%30.20 "Hg10 mi
9:55 AM61 °FSunny.7 mph45%30.20 "Hg10 mi
9:35 AM59 °FSunny.No wind45%30.21 "Hg10 mi
9:15 AM57 °FSunny.No wind51%30.21 "Hg10 mi
8:55 AM59 °FSunny.No wind45%30.21 "Hg10 mi
8:35 AM55 °FSunny.No wind51%30.21 "Hg10 mi
8:15 AM55 °FSunny.No wind47%30.22 "Hg10 mi
Weather by CustomWeather, © 2015

See weather overviewHow to use our weather pages